Location: Bienfait
(49.1431°N, 102.8077°W)
Time: 16:52:26
(UTC+00:00)

N. Korean satellite - Visible Passes

Search period start: 06 December 2022 00:00
Search period end: 16 December 2022 00:00
Orbit: 421 x 453 km, 97.3° (Epoch: 06 December)

Date Brightness Start Highest point End Pass type
(mag) Time Alt. Az. Time Alt. Az. Time Alt. Az.
06 Dec 9.6 00:15:57 10° SW 00:18:12 17° W 00:20:28 10° NW visible
06 Dec 9.0 11:30:52 10° NE 11:33:34 21° E 11:36:13 10° SE visible
06 Dec 7.3 13:03:07 10° N 13:06:04 27° WNW 13:08:59 10° SW visible
06 Dec 7.7 23:35:44 10° S 23:39:01 46° W 23:42:20 10° NNW visible
07 Dec 6.2 12:23:48 10° NNE 12:27:13 83° WNW 12:30:35 10° SSW visible
08 Dec 9.9 00:31:39 10° WSW 00:32:51 11° W 00:34:04 10° WNW visible
08 Dec 8.3 11:45:03 10° NNE 11:48:07 31° E 11:51:09 10° SSE visible
08 Dec 7.7 13:17:56 10° NNW 13:20:26 20° WNW 13:22:56 10° WSW visible
08 Dec 8.6 23:50:28 10° SSW 23:53:31 31° W 23:56:36 10° NNW visible
09 Dec 9.8 11:07:35 10° ENE 11:08:46 11° E 11:09:56 10° ESE visible
09 Dec 6.4 12:38:16 10° N 12:41:36 53° WNW 12:44:52 10° SSW visible
10 Dec 7.4 11:59:14 10° NNE 12:02:30 46° E 12:05:44 10° S visible
10 Dec 8.1 13:32:47 10° NNW 13:34:39 14° WNW 13:36:30 10° W visible
11 Dec 9.3 00:05:13 10° SW 00:07:54 21° W 00:10:36 10° NW visible
11 Dec 9.4 11:20:57 10° NE 11:23:09 16° E 11:25:21 10° SE visible
11 Dec 6.9 12:52:40 10° N 12:55:49 36° WNW 12:58:53 10° SW visible
12 Dec 6.5 12:13:20 10° NNE 12:16:43 71° ESE 12:20:02 10° S visible
12 Dec 8.4 13:48:13 10° NW 13:48:40 10° WNW 13:49:07 10° WNW visible
13 Dec 9.7 00:20:06 10° SW 00:22:10 15° W 00:24:15 10° NW visible
13 Dec 8.8 11:34:38 10° NE 11:37:23 23° E 11:40:05 10° SSE visible
13 Dec 7.5 13:07:01 10° N 13:10:26 24° W 13:12:37 10° SW visible
13 Dec 7.9 23:39:28 10° S 23:42:43 42° W 23:46:00 10° NNW visible
14 Dec 7.3 12:27:24 10° N 12:32:03 35° SSW 12:34:03 10° SSW visible
15 Dec 10.1 00:35:32 10° WSW 00:36:19 11° W 00:37:05 10° WNW visible
15 Dec 8.6 11:48:20 10° NNE 11:53:03 21° SSE 11:54:27 10° SSE visible
15 Dec 8.6 13:21:20 10° NNW 13:26:26 - WSW 13:21:42 12° NNW visible
15 Dec 8.7 23:53:43 10° SSW 23:56:42 28° W 23:59:44 10° NW visible
